| time (UTC) | temp F | wind direction | speed knots | gust knots | rain 1hr in | rain 24hr in | rain mn in | humidity % | barometer mb |
| 20260504195042 | 67 | 184 | 6.1 | 11.3 | 0.00 | 0.00 | 0.00 | 29 | 1011.8 |
| 20260504194600 | 67 | 169 | 7.0 | 14.8 | 0.00 | 0.00 | 0.00 | 28 | 1011.7 |
| 20260504194544 | 59 | 201 | 3.5 | 9.6 | 0.00 | 0.00 | 0.00 | 65 | 1016.1 |
| 20260504194043 | 66 | 102 | 7.0 | 16.5 | 0.00 | 0.00 | 0.00 | 28 | 1011.6 |
| 20260504193547 | 66 | 152 | 9.6 | 16.5 | 0.00 | 0.00 | 0.00 | 28 | 1011.7 |
| 20260504193109 | 66 | 170 | 7.0 | 14.8 | 0.00 | 0.00 | 0.00 | 30 | 1011.9 |
| 20260504193038 | 59 | 214 | 7.8 | 13.0 | 0.00 | 0.00 | 0.00 | 66 | 1016.1 |
| 20260504192543 | 66 | 132 | 7.8 | 15.6 | 0.00 | 0.00 | 0.00 | 31 | 1011.7 |
| 20260504192046 | 66 | 127 | 8.7 | 15.6 | 0.00 | 0.00 | 0.00 | 31 | 1011.7 |
| 20260504191559 | 66 | 143 | 6.1 | 16.5 | 0.00 | 0.00 | 0.00 | 30 | 1011.8 |
| 20260504191541 | 59 | 205 | 7.0 | 13.0 | 0.00 | 0.00 | 0.00 | 65 | 1016.1 |
| 20260504191048 | 66 | 170 | 10.4 | 16.5 | 0.00 | 0.00 | 0.00 | 31 | 1011.8 |
| 20260504190548 | 65 | 209 | 8.7 | 14.8 | 0.00 | 0.00 | 0.00 | 35 | 1011.7 |
| 20260504190110 | 65 | 166 | 6.1 | 13.9 | 0.00 | 0.00 | 0.00 | 35 | 1011.6 |
| 20260504190046 | 57 | 261 | 5.2 | 11.3 | 0.00 | 0.00 | 0.00 | 69 | 1016.4 |
| 20260504185549 | 65 | 141 | 8.7 | 13.0 | 0.00 | 0.00 | 0.00 | 35 | 1011.7 |
| 20260504185042 | 65 | 153 | 7.0 | 13.0 | 0.00 | 0.00 | 0.00 | 35 | 1011.8 |
| 20260504184649 | 65 | 158 | 7.0 | 13.0 | 0.00 | 0.00 | 0.00 | 35 | 1012.0 |
| 20260504184546 | 58 | 188 | 4.3 | 10.4 | 0.00 | 0.00 | 0.00 | 69 | 1016.1 |
| 20260504184043 | 63 | 179 | 7.8 | 13.0 | 0.00 | 0.00 | 0.00 | 36 | 1012.1 |
| 20260504183542 | 63 | 162 | 7.8 | 13.0 | 0.00 | 0.00 | 0.00 | 38 | 1012.1 |
| 20260504183054 | 63 | 203 | 8.7 | 12.2 | 0.00 | 0.00 | 0.00 | 37 | 1012.1 |
| 20260504183050 | 57 | 230 | 1.7 | 7.8 | 0.00 | 0.00 | 0.00 | 68 | 1016.3 |
| 20260504182543 | 64 | 186 | 7.0 | 12.2 | 0.00 | 0.00 | 0.00 | 37 | 1012.0 |
| 20260504182046 | 64 | 140 | 6.1 | 11.3 | 0.00 | 0.00 | 0.00 | 37 | 1012.2 |
| 20260504181559 | 64 | 181 | 7.0 | 11.3 | 0.00 | 0.00 | 0.00 | 38 | 1012.2 |
| 20260504181552 | 56 | 219 | 4.3 | 10.4 | 0.00 | 0.00 | 0.00 | 70 | 1016.5 |
| 20260504181049 | 63 | 148 | 7.0 | 10.4 | 0.00 | 0.00 | 0.00 | 40 | 1012.0 |
| 20260504180547 | 63 | 179 | 7.0 | 10.4 | 0.00 | 0.00 | 0.00 | 40 | 1012.0 |
| 20260504180059 | 63 | 178 | 5.2 | 8.7 | 0.00 | 0.00 | 0.00 | 41 | 1011.9 |
| 20260504180047 | 56 | 267 | 4.3 | 9.6 | 0.00 | 0.00 | 0.00 | 70 | 1016.4 |
| 20260504175544 | 63 | 161 | 6.1 | 9.6 | 0.00 | 0.00 | 0.00 | 41 | 1012.1 |
| 20260504175046 | 62 | 146 | 6.1 | 12.2 | 0.00 | 0.00 | 0.00 | 41 | 1012.0 |
| 20260504174551 | 63 | 120 | 5.2 | 12.2 | 0.00 | 0.00 | 0.00 | 42 | 1012.0 |
| 20260504174050 | 62 | 191 | 5.2 | 10.4 | 0.00 | 0.00 | 0.00 | 42 | 1011.9 |
| 20260504173542 | 62 | 176 | 5.2 | 10.4 | 0.00 | 0.00 | 0.00 | 42 | 1011.8 |
| 20260504173056 | 62 | 171 | 6.1 | 9.6 | 0.00 | 0.00 | 0.00 | 43 | 1011.9 |
| 20260504173049 | 57 | 225 | 5.2 | 12.2 | 0.00 | 0.00 | 0.00 | 68 | 1016.1 |
| 20260504172542 | 62 | 178 | 3.5 | 11.3 | 0.00 | 0.00 | 0.00 | 44 | 1011.7 |
| 20260504172042 | 60 | 192 | 5.2 | 11.3 | 0.00 | 0.00 | 0.00 | 44 | 1011.6 |
| 20260504171608 | 60 | 159 | 5.2 | 10.4 | 0.00 | 0.00 | 0.00 | 45 | 1011.7 |
| 20260504171548 | 57 | 262 | 4.3 | 11.3 | 0.00 | 0.00 | 0.00 | 68 | 1015.9 |
| 20260504171042 | 60 | 152 | 6.1 | 9.6 | 0.00 | 0.00 | 0.00 | 44 | 1011.7 |
| 20260504170547 | 60 | 194 | 6.1 | 10.4 | 0.00 | 0.00 | 0.00 | 45 | 1011.7 |
| 20260504151043 | 57 | 217 | 7.0 | 10.4 | 0.00 | 0.00 | 0.00 | 47 | 1010.8 |
| 20260504150548 | 57 | 191 | 7.0 | 9.6 | 0.00 | 0.00 | 0.00 | 46 | 1010.8 |
| 20260504141042 | 54 | 101 | 0.9 | 1.7 | 0.00 | 0.00 | 0.00 | 48 | 1010.4 |
| 20260504140619 | 54 | 0 | 0.9 | 1.7 | 0.00 | 0.00 | 0.00 | 50 | 1010.4 |
| 20260504140106 | 53 | 0 | 0.0 | 0.9 | 0.00 | 0.00 | 0.00 | 51 | 1010.4 |
| 20260504130546 | 53 | 328 | 0.9 | 2.6 | 0.00 | 0.00 | 0.00 | 53 | 1009.7 |
| 20260504120110 | 53 | 326 | 0.9 | 3.5 | 0.00 | 0.00 | 0.00 | 51 | 1009.5 |
| 20260504110547 | 55 | 319 | 4.3 | 7.0 | 0.00 | 0.00 | 0.00 | 50 | 1009.4 |
| 20260504110107 | 55 | 328 | 3.5 | 6.1 | 0.00 | 0.00 | 0.00 | 50 | 1009.4 |
| 20260504100549 | 56 | 300 | 2.6 | 4.3 | 0.00 | 0.00 | 0.00 | 48 | 1009.1 |
| 20260504081553 | 61 | 49 | 1.7 | 4.3 | 0.00 | 0.00 | 0.00 | 40 | 1009.4 |
| 20260504081550 | 53 | 0 | 0.0 | 1.7 | 0.00 | 0.01 | 0.00 | 87 | 1015.8 |
| 20260504081042 | 62 | 54 | 1.7 | 3.5 | 0.00 | 0.00 | 0.00 | 38 | 1009.4 |
| 20260504080542 | 64 | 65 | 0.0 | 5.2 | 0.00 | 0.00 | 0.00 | 36 | 1009.6 |
| 20260504060218 | 66 | 193 | 2.6 | 7.0 | 0.00 | 0.00 | 0.00 | 32 | 1008.7 |
| 20260504050637 | 68 | 215 | 3.5 | 6.1 | 0.00 | 0.00 | 0.00 | 31 | 1008.9 |
| 20260504045548 | 69 | 208 | 4.3 | 7.0 | 0.00 | 0.00 | 0.00 | 30 | 1008.9 |
| 20260504045047 | 70 | 211 | 4.3 | 7.0 | 0.00 | 0.00 | 0.00 | 30 | 1008.8 |
| 20260504044552 | 70 | 199 | 4.3 | 7.0 | 0.00 | 0.00 | 0.00 | 30 | 1008.9 |
| 20260504044547 | 54 | 0 | 0.9 | 2.6 | 0.00 | 0.01 | 0.01 | 80 | 1015.5 |
| 20260504044043 | 70 | 235 | 4.3 | 7.8 | 0.00 | 0.00 | 0.00 | 30 | 1008.9 |
| 20260504043543 | 70 | 212 | 3.5 | 7.8 | 0.00 | 0.00 | 0.00 | 30 | 1008.8 |
| 20260504043053 | 70 | 219 | 4.3 | 8.7 | 0.00 | 0.00 | 0.00 | 30 | 1008.7 |
| 20260504043051 | 54 | 223 | 3.5 | 6.1 | 0.00 | 0.01 | 0.01 | 79 | 1015.3 |
| 20260504042542 | 71 | 215 | 5.2 | 9.6 | 0.00 | 0.00 | 0.00 | 29 | 1008.8 |
| 20260504042042 | 71 | 194 | 5.2 | 10.4 | 0.00 | 0.00 | 0.00 | 29 | 1008.7 |
| 20260504041547 | 71 | 188 | 7.0 | 10.4 | 0.00 | 0.00 | 0.00 | 29 | 1008.7 |
| 20260504041046 | 71 | 214 | 5.2 | 11.3 | 0.00 | 0.00 | 0.00 | 29 | 1008.7 |
| 20260504040544 | 71 | 238 | 7.8 | 11.3 | 0.00 | 0.00 | 0.00 | 29 | 1008.7 |
| 20260504040156 | 72 | 213 | 7.0 | 15.6 | 0.00 | 0.00 | 0.00 | 29 | 1008.9 |
| 20260504040058 | 72 | 213 | 7.0 | 15.6 | 0.00 | 0.00 | 0.00 | 29 | 1008.9 |
| 20260504040050 | 54 | 205 | 1.7 | 7.8 | 0.00 | 0.01 | 0.01 | 80 | 1015.2 |
| 20260504035545 | 72 | 231 | 7.0 | 15.6 | 0.00 | 0.00 | 0.00 | 28 | 1008.9 |
| 20260504035047 | 72 | 217 | 7.8 | 12.2 | 0.00 | 0.00 | 0.00 | 28 | 1008.7 |
| 20260504034549 | 54 | 173 | 2.6 | 12.2 | 0.00 | 0.01 | 0.01 | 80 | 1015.4 |
| 20260504034050 | 72 | 205 | 5.2 | 13.9 | 0.00 | 0.00 | 0.00 | 25 | 1008.5 |
| 20260504033543 | 73 | 215 | 8.7 | 13.9 | 0.00 | 0.00 | 0.00 | 24 | 1008.4 |
| 20260504033054 | 73 | 217 | 7.8 | 13.9 | 0.00 | 0.00 | 0.00 | 24 | 1008.3 |
| 20260504033047 | 54 | 192 | 7.0 | 11.3 | 0.00 | 0.01 | 0.01 | 80 | 1015.0 |
| 20260504032546 | 73 | 160 | 7.0 | 12.2 | 0.00 | 0.00 | 0.00 | 23 | 1008.2 |
| 20260504032046 | 73 | 197 | 7.0 | 12.2 | 0.00 | 0.00 | 0.00 | 22 | 1008.3 |
| 20260504031601 | 73 | 214 | 7.0 | 12.2 | 0.00 | 0.00 | 0.00 | 21 | 1008.2 |
| 20260504031544 | 54 | 252 | 8.7 | 14.8 | 0.00 | 0.01 | 0.01 | 79 | 1014.6 |
| 20260504031045 | 74 | 181 | 7.8 | 13.9 | 0.00 | 0.00 | 0.00 | 21 | 1008.2 |
| 20260504030551 | 74 | 221 | 8.7 | 13.9 | 0.00 | 0.00 | 0.00 | 21 | 1008.2 |
| 20260504030050 | 74 | 191 | 7.8 | 13.9 | 0.00 | 0.00 | 0.00 | 21 | 1008.0 |
| 20260504030047 | 55 | 176 | 6.1 | 13.9 | 0.00 | 0.01 | 0.01 | 78 | 1014.5 |
| 20260504025542 | 74 | 178 | 7.8 | 12.2 | 0.00 | 0.00 | 0.00 | 20 | 1008.0 |
| 20260504025046 | 74 | 206 | 8.7 | 12.2 | 0.00 | 0.00 | 0.00 | 20 | 1008.1 |
| 20260504024602 | 55 | 236 | 5.2 | 12.2 | 0.00 | 0.01 | 0.01 | 76 | 1014.4 |
| 20260504024558 | 74 | 183 | 7.8 | 12.2 | 0.00 | 0.00 | 0.00 | 19 | 1008.1 |
| 20260504024054 | 74 | 208 | 7.8 | 12.2 | 0.00 | 0.00 | 0.00 | 19 | 1008.0 |
| 20260504023549 | 74 | 184 | 7.0 | 16.5 | 0.00 | 0.00 | 0.00 | 19 | 1008.0 |
| 20260504023050 | 75 | 186 | 9.6 | 16.5 | 0.00 | 0.00 | 0.00 | 19 | 1008.0 |
| 20260504023040 | 56 | 225 | 7.0 | 13.0 | 0.00 | 0.01 | 0.01 | 73 | 1014.3 |
| 20260504022546 | 75 | 178 | 7.0 | 13.9 | 0.00 | 0.00 | 0.00 | 19 | 1007.9 |
| 20260504022047 | 75 | 174 | 8.7 | 13.9 | 0.00 | 0.00 | 0.00 | 18 | 1008.0 |
| 20260504021555 | 75 | 180 | 7.8 | 15.6 | 0.00 | 0.00 | 0.00 | 18 | 1008.1 |
| 20260504021547 | 56 | 216 | 6.1 | 13.0 | 0.00 | 0.01 | 0.01 | 71 | 1014.3 |
| 20260504021047 | 75 | 197 | 9.6 | 17.4 | 0.00 | 0.00 | 0.00 | 18 | 1008.2 |
| 20260504020542 | 76 | 193 | 9.6 | 17.4 | 0.00 | 0.00 | 0.00 | 18 | 1008.2 |
| 20260504020052 | 76 | 183 | 11.3 | 18.2 | 0.00 | 0.00 | 0.00 | 18 | 1008.1 |
| 20260504020047 | 57 | 197 | 7.0 | 13.9 | 0.00 | 0.01 | 0.01 | 70 | 1014.0 |
| 20260504015551 | 77 | 201 | 13.0 | 18.2 | 0.00 | 0.00 | 0.00 | 17 | 1008.0 |
| 20260504015043 | 77 | 208 | 12.2 | 17.4 | 0.00 | 0.00 | 0.00 | 17 | 1008.0 |
| 20260504014554 | 78 | 186 | 10.4 | 17.4 | 0.00 | 0.00 | 0.00 | 17 | 1008.1 |
| 20260504014548 | 58 | 224 | 8.7 | 14.8 | 0.00 | 0.01 | 0.01 | 69 | 1013.7 |
| 20260504014046 | 78 | 197 | 10.4 | 17.4 | 0.00 | 0.00 | 0.00 | 16 | 1008.1 |
| 20260504013547 | 78 | 186 | 12.2 | 17.4 | 0.00 | 0.00 | 0.00 | 16 | 1008.2 |
| 20260504013058 | 78 | 205 | 10.4 | 18.2 | 0.00 | 0.00 | 0.00 | 16 | 1008.0 |
| 20260504013045 | 58 | 259 | 9.6 | 15.6 | 0.00 | 0.01 | 0.01 | 70 | 1013.6 |
| 20260504012544 | 79 | 205 | 10.4 | 18.2 | 0.00 | 0.00 | 0.00 | 16 | 1008.0 |
| 20260504012045 | 79 | 188 | 11.3 | 18.2 | 0.00 | 0.00 | 0.00 | 16 | 1008.1 |
| 20260504011552 | 79 | 195 | 9.6 | 16.5 | 0.00 | 0.00 | 0.00 | 16 | 1008.1 |
| 20260504011549 | 59 | 220 | 7.8 | 14.8 | 0.00 | 0.01 | 0.01 | 69 | 1013.5 |
| 20260504011047 | 79 | 155 | 11.3 | 17.4 | 0.00 | 0.00 | 0.00 | 16 | 1008.2 |
| 20260504010544 | 79 | 184 | 11.3 | 18.2 | 0.00 | 0.00 | 0.00 | 15 | 1008.0 |
| 20260504010057 | 80 | 186 | 10.4 | 18.2 | 0.00 | 0.00 | 0.00 | 15 | 1008.0 |
| 20260504010055 | 59 | 244 | 9.6 | 17.4 | 0.00 | 0.01 | 0.01 | 68 | 1013.3 |
| 20260504005548 | 80 | 203 | 10.4 | 19.1 | 0.00 | 0.00 | 0.00 | 15 | 1008.0 |
| 20260504005043 | 80 | 178 | 13.9 | 19.1 | 0.00 | 0.00 | 0.00 | 15 | 1008.1 |
| 20260504004603 | 80 | 201 | 10.4 | 18.2 | 0.00 | 0.00 | 0.00 | 15 | 1008.1 |
| 20260504004553 | 61 | 234 | 8.7 | 16.5 | 0.00 | 0.01 | 0.01 | 67 | 1013.0 |
| 20260504004050 | 81 | 176 | 9.6 | 20.0 | 0.00 | 0.00 | 0.00 | 15 | 1008.2 |
| 20260504003547 | 80 | 180 | 10.4 | 20.0 | 0.00 | 0.00 | 0.00 | 15 | 1008.2 |
| 20260504003054 | 81 | 197 | 11.3 | 20.0 | 0.00 | 0.00 | 0.00 | 15 | 1008.2 |
| 20260504002554 | 81 | 159 | 11.3 | 18.2 | 0.00 | 0.00 | 0.00 | 15 | 1008.2 |
| 20260504002045 | 81 | 186 | 12.2 | 19.1 | 0.00 | 0.00 | 0.00 | 14 | 1008.2 |
| 20260504001557 | 81 | 190 | 12.2 | 20.0 | 0.00 | 0.00 | 0.00 | 15 | 1008.2 |
| 20260504001546 | 64 | 196 | 7.8 | 13.0 | 0.00 | 0.01 | 0.01 | 63 | 1012.4 |
| 20260504001043 | 81 | 144 | 13.0 | 20.0 | 0.00 | 0.00 | 0.00 | 15 | 1008.2 |
| 20260504000548 | 81 | 199 | 13.0 | 20.9 | 0.00 | 0.00 | 0.00 | 14 | 1008.2 |
| 20260504000112 | 64 | 256 | 6.1 | 12.2 | 0.00 | 0.01 | 0.01 | 64 | 1012.5 |
| 20260503235550 | 82 | 204 | 13.0 | 24.3 | 0.00 | 0.00 | 0.00 | 15 | 1008.1 |
| 20260503235107 | 82 | 173 | 12.2 | 24.3 | 0.00 | 0.00 | 0.00 | 15 | 1008.2 |
| 20260503234554 | 82 | 226 | 13.0 | 24.3 | 0.00 | 0.00 | 0.00 | 15 | 1008.3 |
| 20260503234051 | 82 | 196 | 9.6 | 23.5 | 0.00 | 0.00 | 0.00 | 15 | 1008.3 |
| 20260503233555 | 82 | 167 | 13.0 | 23.5 | 0.00 | 0.00 | 0.00 | 15 | 1008.2 |
| 20260503233055 | 82 | 151 | 11.3 | 22.6 | 0.00 | 0.00 | 0.00 | 15 | 1008.1 |
| 20260503233049 | 65 | 0 | 6.1 | 12.2 | 0.00 | 0.01 | 0.01 | 65 | 1012.7 |
| 20260503232550 | 82 | 160 | 11.3 | 22.6 | 0.00 | 0.00 | 0.00 | 14 | 1008.0 |
| 20260503232056 | 82 | 150 | 10.4 | 20.0 | 0.00 | 0.00 | 0.00 | 15 | 1008.1 |
| 20260503231555 | 83 | 190 | 12.2 | 20.0 | 0.00 | 0.00 | 0.00 | 14 | 1008.2 |
| 20260503231548 | 64 | 202 | 7.8 | 13.9 | 0.00 | 0.01 | 0.01 | 67 | 1012.9 |
| 20260503231055 | 83 | 192 | 8.7 | 20.0 | 0.00 | 0.00 | 0.00 | 14 | 1008.2 |
| 20260503230551 | 83 | 156 | 8.7 | 18.2 | 0.00 | 0.00 | 0.00 | 14 | 1008.1 |
| 20260503230056 | 83 | 136 | 8.7 | 18.2 | 0.00 | 0.00 | 0.00 | 14 | 1008.2 |
| 20260503230049 | 64 | 153 | 6.1 | 11.3 | 0.00 | 0.01 | 0.01 | 68 | 1013.1 |
| 20260503225554 | 82 | 179 | 12.2 | 18.2 | 0.00 | 0.00 | 0.00 | 13 | 1008.3 |
| 20260503225103 | 82 | 179 | 10.4 | 19.1 | 0.00 | 0.00 | 0.00 | 13 | 1008.5 |
| 20260503224551 | 65 | 211 | 5.2 | 11.3 | 0.00 | 0.01 | 0.01 | 65 | 1013.3 |
| 20260503224549 | 83 | 183 | 12.2 | 20.0 | 0.00 | 0.00 | 0.00 | 14 | 1008.6 |
| 20260503224051 | 83 | 184 | 13.0 | 20.0 | 0.00 | 0.00 | 0.00 | 14 | 1008.5 |
| 20260503223551 | 83 | 127 | 10.4 | 23.5 | 0.00 | 0.00 | 0.00 | 14 | 1008.6 |
| 20260503223058 | 83 | 153 | 13.0 | 23.5 | 0.00 | 0.00 | 0.00 | 14 | 1008.7 |
| 20260503223053 | 64 | 286 | 5.2 | 11.3 | 0.00 | 0.01 | 0.01 | 67 | 1013.4 |
| 20260503222550 | 82 | 204 | 12.2 | 20.0 | 0.00 | 0.00 | 0.00 | 14 | 1008.6 |
| 20260503222053 | 82 | 193 | 10.4 | 20.0 | 0.00 | 0.00 | 0.00 | 15 | 1008.7 |
| 20260503221556 | 83 | 184 | 10.4 | 20.9 | 0.00 | 0.00 | 0.00 | 15 | 1008.8 |
| 20260503221554 | 62 | 224 | 4.3 | 10.4 | 0.00 | 0.01 | 0.01 | 71 | 1013.5 |
| 20260503221056 | 82 | 184 | 13.0 | 21.7 | 0.00 | 0.00 | 0.00 | 15 | 1008.9 |
| 20260503220616 | 82 | 143 | 11.3 | 21.7 | 0.00 | 0.00 | 0.00 | 15 | 1008.9 |
| 20260503220051 | 64 | 255 | 3.5 | 9.6 | 0.00 | 0.01 | 0.01 | 68 | 1013.7 |
| 20260503215551 | 82 | 144 | 9.6 | 20.9 | 0.00 | 0.00 | 0.00 | 15 | 1009.1 |
| 20260503215121 | 82 | 152 | 12.2 | 20.9 | 0.00 | 0.00 | 0.00 | 15 | 1009.2 |
| 20260503214551 | 83 | 202 | 13.9 | 20.9 | 0.00 | 0.00 | 0.00 | 14 | 1009.2 |
| 20260503214546 | 62 | 284 | 7.8 | 11.3 | 0.00 | 0.01 | 0.01 | 72 | 1013.9 |
| 20260503214050 | 83 | 139 | 6.1 | 14.8 | 0.00 | 0.00 | 0.00 | 14 | 1009.2 |
| 20260503213550 | 82 | 110 | 10.4 | 17.4 | 0.00 | 0.00 | 0.00 | 15 | 1009.3 |
| 20260503213057 | 83 | 78 | 10.4 | 17.4 | 0.00 | 0.00 | 0.00 | 14 | 1009.4 |
| 20260503213046 | 60 | 281 | 3.5 | 7.8 | 0.00 | 0.01 | 0.01 | 78 | 1014.0 |
| 20260503212603 | 83 | 120 | 10.4 | 20.0 | 0.00 | 0.00 | 0.00 | 13 | 1009.5 |
| 20260503212051 | 83 | 147 | 7.8 | 20.0 | 0.00 | 0.00 | 0.00 | 14 | 1009.6 |
| 20260503211604 | 82 | 150 | 13.0 | 20.0 | 0.00 | 0.00 | 0.00 | 14 | 1009.7 |
| 20260503211544 | 59 | 244 | 4.3 | 9.6 | 0.00 | 0.01 | 0.01 | 79 | 1014.2 |
| 20260503211053 | 83 | 165 | 13.0 | 20.0 | 0.00 | 0.00 | 0.00 | 14 | 1009.6 |
| 20260503210551 | 84 | 137 | 12.2 | 20.0 | 0.00 | 0.00 | 0.00 | 14 | 1009.7 |
| 20260503210054 | 83 | 113 | 10.4 | 15.6 | 0.00 | 0.00 | 0.00 | 14 | 1009.7 |
| 20260503210050 | 58 | 206 | 4.3 | 10.4 | 0.00 | 0.01 | 0.01 | 82 | 1014.1 |
| 20260503205546 | 83 | 114 | 10.4 | 16.5 | 0.00 | 0.00 | 0.00 | 15 | 1009.7 |
| 20260503205046 | 83 | 127 | 9.6 | 16.5 | 0.00 | 0.00 | 0.00 | 15 | 1009.8 |
| 20260503204554 | 83 | 158 | 7.8 | 22.6 | 0.00 | 0.00 | 0.00 | 15 | 1009.9 |
| 20260503204545 | 58 | 234 | 5.2 | 9.6 | 0.00 | 0.01 | 0.01 | 84 | 1014.2 |
| 20260503204058 | 83 | 152 | 9.6 | 22.6 | 0.00 | 0.00 | 0.00 | 15 | 1010.0 |
| 20260503203542 | 83 | 143 | 12.2 | 20.9 | 0.00 | 0.00 | 0.00 | 14 | 1010.0 |
| 20260503203105 | 58 | 243 | 2.6 | 7.8 | 0.00 | 0.01 | 0.01 | 86 | 1014.4 |
| 20260503203052 | 83 | 135 | 11.3 | 20.0 | 0.00 | 0.00 | 0.00 | 15 | 1010.0 |
| 20260503202545 | 83 | 105 | 7.8 | 17.4 | 0.00 | 0.00 | 0.00 | 16 | 1010.0 |
| 20260503202045 | 83 | 127 | 12.2 | 17.4 | 0.00 | 0.00 | 0.00 | 16 | 1010.1 |
| 20260503201548 | 82 | 155 | 8.7 | 20.9 | 0.00 | 0.00 | 0.00 | 15 | 1010.1 |
| 20260503201546 | 57 | 288 | 2.6 | 7.0 | 0.00 | 0.01 | 0.01 | 88 | 1014.3 |
| 20260503201047 | 83 | 158 | 7.8 | 20.9 | 0.00 | 0.00 | 0.00 | 15 | 1010.4 |
| 20260503200548 | 83 | 153 | 12.2 | 20.9 | 0.00 | 0.00 | 0.00 | 16 | 1010.5 |
| 20260503200054 | 83 | 138 | 7.0 | 18.2 | 0.00 | 0.00 | 0.00 | 16 | 1010.6 |
| 20260503200050 | 57 | 288 | 3.5 | 8.7 | 0.00 | 0.01 | 0.01 | 91 | 1014.4 |
| 20260503195650 | 82 | 113 | 9.6 | 30.4 | 0.00 | 0.00 | 0.00 | 17 | 1010.6 |